Weather History for KLFK - May, 2013

Change the Weather History Date:

Tuesday, May 14, 2013

  Actual Average Record
Temperature  
Mean Temperature 70 °F 74 °F  
Max Temperature 86 °F 85 °F 93 °F (1911)
Min Temperature 54 °F 63 °F 46 °F (1971)
Degree Days  
Heating Degree Days 0 0  
Month to date heating degree days 25 1  
Since 1 July heating degree days 1615 1914  
Cooling Degree Days 5 9  
Month to date cooling degree days 58 105  
Year to date cooling degree days 259 281  
Growing Degree Days 20 (Base 50)    
Moisture  
Dew Point 55 °F    
Average Humidity 64    
Maximum Humidity 97    
Minimum Humidity 30    
Precipitation  
Precipitation 0.00 in 0.15 in 2.10 in (1908)
Month to date precipitation 1.05 1.99  
Year to date precipitation 12.63 16.87  
Snow  
Snow 0.00 in - - ()
Month to date snowfall 0.0  
Since 1 July snowfall 0.0  
Snow Depth 0.00 in    
Sea Level Pressure  
Sea Level Pressure 30.18 in    
Wind  
Wind Speed 6 mph (SSE)    
Max Wind Speed 17 mph    
Max Gust Speed 24 mph    
Visibility 8 miles    
Events      
T = Trace of Precipitation, MM = Missing Value Source: NWS Daily Summary

Daily Weather History Graph

Daily Weather History Graph

Search for Another Location

Airport or City:

Trip Planner

Search our weather history database for the weather conditions in past years. The results will help you decide how hot, cold, wet, or windy it might be!

Date:

Astronomy

May. 14, 2013 Rise Set
Actual Time 6:23 AM CDT 8:07 PM CDT
Civil Twilight 5:57 AM CDT 8:34 PM CDT
Nautical Twilight 5:25 AM CDT 9:06 PM CDT
Astronomical Twilight 4:51 AM CDT 9:39 PM CDT
Moon 10:03 AM CDT (5/14) 11:57 PM CDT (5/14)
Length of Visible Light 14h 36m
Length of Day
13h 43m
Waxing Crescent, 19% of the Moon is Illuminated
May 14
Waxing Crescent
May 17
First Quarter
May 24
Full
May 31
Last Quarter
Jun 8
New

Hourly Weather History & Observations

Time (CDT) Temp. Heat Index Dew Point Humidity Pressure Visibility Wind Dir Wind Speed Gust Speed Precip Events Conditions
12:53 AM 62.1 °F - 53.1 °F 72% 30.20 in 10.0 mi South 3.5 mph - N/A   Clear
1:53 AM 57.9 °F - 53.1 °F 84% 30.19 in 10.0 mi SE 3.5 mph - N/A   Clear
2:53 AM 57.0 °F - 53.1 °F 87% 30.18 in 10.0 mi Calm Calm - N/A   Clear
3:53 AM 55.9 °F - 53.1 °F 90% 30.18 in 10.0 mi SSE 3.5 mph - N/A   Clear
4:53 AM 55.9 °F - 53.1 °F 90% 30.18 in 10.0 mi SE 3.5 mph - N/A   Clear
5:53 AM 55.9 °F - 53.1 °F 90% 30.19 in 8.0 mi Calm Calm - N/A   Clear
6:53 AM 55.9 °F - 53.1 °F 90% 30.20 in 5.0 mi Calm Calm - N/A   Clear
7:04 AM 57.2 °F - 55.4 °F 94% 30.21 in 4.0 mi Calm Calm - N/A   Scattered Clouds
7:17 AM 57.2 °F - 55.4 °F 94% 30.21 in 3.0 mi SE 3.5 mph - N/A   Mostly Cloudy
7:22 AM 57.2 °F - 55.4 °F 94% 30.21 in 1.8 mi Calm Calm - N/A   Mostly Cloudy
7:32 AM 57.2 °F - 55.4 °F 94% 30.22 in 3.0 mi SSE 3.5 mph - N/A   Overcast
7:39 AM 59.0 °F - 57.2 °F 94% 30.22 in 4.0 mi SSE 4.6 mph - N/A   Overcast
7:48 AM 60.8 °F - 57.2 °F 88% 30.22 in 1.8 mi South 3.5 mph - N/A   Overcast
7:53 AM 61.0 °F - 59.0 °F 93% 30.22 in 1.0 mi SSE 4.6 mph - N/A   Overcast
8:14 AM 62.6 °F - 59.0 °F 88% 30.23 in 3.0 mi Variable 3.5 mph - N/A   Overcast
8:53 AM 64.0 °F - 60.1 °F 87% 30.23 in 6.0 mi South 4.6 mph - N/A   Mostly Cloudy
9:24 AM 66.2 °F - 60.8 °F 83% 30.24 in 8.0 mi South 8.1 mph - N/A   Scattered Clouds
9:53 AM 70.0 °F - 60.1 °F 71% 30.23 in 10.0 mi South 5.8 mph - N/A   Clear
10:53 AM 75.0 °F - 57.9 °F 55% 30.24 in 10.0 mi South 5.8 mph - N/A   Clear
11:53 AM 78.1 °F - 57.0 °F 48% 30.22 in 10.0 mi South 5.8 mph - N/A   Clear
12:53 PM 82.0 °F 81.7 °F 57.0 °F 42% 30.19 in 10.0 mi Variable 5.8 mph - N/A   Clear
1:53 PM 84.0 °F 82.6 °F 54.0 °F 35% 30.17 in 10.0 mi South 12.7 mph 19.6 mph N/A   Clear
2:53 PM 84.9 °F 83.6 °F 55.0 °F 36% 30.15 in 10.0 mi South 8.1 mph 18.4 mph N/A   Clear
3:53 PM 84.9 °F 83.3 °F 54.0 °F 34% 30.13 in 10.0 mi South 10.4 mph 21.9 mph N/A   Clear
4:53 PM 84.9 °F - 52.0 °F 32% 30.12 in 10.0 mi South 12.7 mph 19.6 mph N/A   Clear
5:53 PM 82.9 °F 82.1 °F 55.9 °F 39% 30.10 in 10.0 mi South 10.4 mph - N/A   Clear
6:53 PM 81.0 °F - 46.9 °F 30% 30.09 in 10.0 mi South 8.1 mph - N/A   Clear
7:53 PM 77.0 °F - 45.0 °F 32% 30.08 in 10.0 mi SSE 6.9 mph - N/A   Clear
8:53 PM 71.1 °F - 48.9 °F 45% 30.09 in 10.0 mi SE 3.5 mph - N/A   Clear
9:53 PM 69.1 °F - 52.0 °F 54% 30.10 in 10.0 mi SSE 8.1 mph - N/A   Clear
10:53 PM 68.0 °F - 54.0 °F 61% 30.13 in 10.0 mi SSE 8.1 mph - N/A   Clear
11:53 PM 66.0 °F - 57.0 °F 73% 30.13 in 10.0 mi SSE 6.9 mph - N/A   Clear